This is the latest recevied weather packets stored in our database for station/object WR7DW-3. If no packets are shown the sender has not sent any weather packets the latest 10 day(s).
| Time | Temp. | Humidity | Pressure | Rain* | Wind** | Luminosity | Snow |
|---|---|---|---|---|---|---|---|
| 1777328100 | -3.33° C | 96% | 1012.7 hPa | 0 mm | - | - | - |
| 1777327200 | -3.89° C | 96% | 1012.6 hPa | 0 mm | - | - | - |
| 1777326300 | -4.44° C | 96% | 1013.1 hPa | 0 mm | - | - | - |
| 1777325400 | -4.44° C | 97% | 1013.4 hPa | 0 mm | - | - | - |
| 1777324500 | -4.44° C | 96% | 1013.3 hPa | 0 mm | - | - | - |
| 1777323600 | -3.89° C | 97% | 1013.3 hPa | 0 mm | - | - | - |
| 1777322700 | -3.33° C | 96% | 1013.3 hPa | 0 mm | - | - | - |
| 1777320901 | -4.44° C | 96% | 1013.5 hPa | 0 mm | - | - | - |
| 1777320001 | -4.44° C | 96% | 1013.8 hPa | 0 mm | - | - | - |
| 1777319101 | -4.44° C | 96% | 1013.8 hPa | 0 mm | - | - | - |
| 1777318201 | -3.89° C | 96% | 1013.8 hPa | 0 mm | - | - | - |
| 1777317301 | -5° C | 96% | 1013.9 hPa | 0 mm | - | - | - |
| 1777316401 | -5° C | 96% | 1013.8 hPa | 0 mm | - | - | - |
| 1777315501 | -5° C | 96% | 1013.9 hPa | 0 mm | - | - | - |
| 1777314601 | -5° C | 96% | 1013.8 hPa | 0 mm | - | - | - |
| 1777313701 | -4.44° C | 96% | 1013.8 hPa | 0 mm | - | - | - |
| 1777312801 | -4.44° C | 96% | 1014 hPa | 0 mm | - | - | - |
| 1777311001 | -5° C | 96% | 1014.1 hPa | 0 mm | - | - | - |
| 1777310101 | -5.56° C | 96% | 1014.1 hPa | 0 mm | - | - | - |
| 1777309201 | -6.11° C | 96% | 1014.1 hPa | 0 mm | - | - | - |
| 1777308302 | -6.67° C | 95% | 1014.2 hPa | 0 mm | - | - | - |
| 1777307401 | -6.67° C | 95% | 1014.1 hPa | 0 mm | - | - | - |
| 1777306501 | -6.67° C | 95% | 1014.2 hPa | 0 mm | - | - | - |
| 1777305601 | -7.22° C | 95% | 1014.3 hPa | 0 mm | - | - | - |
| 1777304701 | -7.22° C | 95% | 1014.2 hPa | 0 mm | - | - | - |
* Rain latest hour (hover to see other rain measurements)
** Current wind speed in m/s (hover to see current wind gust speed)